Wind_Speed
14 16 17 19 21 24 26 28 30 31 33 34 35 35 36 36 37 37 36 36 36 36 36 36 36 36 37 36 36 35 34 33 33 33 32 33 32 32 32 33 35 35 35
12 14 17 19 21 23 25 27 29 31 32 33 34 34 34 34 35 36 36 36 36 37 36 36 37 37 37 38 38 37 36 35 33 32 30 31 31 32 32 32 34 35 37
12 14 16 18 20 21 23 25 27 28 29 30 31 32 33 33 34 34 35 35 36 36 35 35 35 35 35 36 36 36 36 35 34 32 31 30 30 31 32 33 34 35 36
12 14 16 18 19 21 22 24 25 26 28 29 30 31 32 33 34 34 34 34 34 34 34 33 32 32 33 33 34 34 34 34 33 33 32 31 30 30 31 32 33 34 35
12 15 17 19 20 22 23 24 25 26 28 29 29 30 31 32 33 33 33 34 34 34 34 32 31 31 31 31 31 31 32 32 32 32 31 31 30 30 30 31 32 34 35
15 17 19 21 22 23 24 25 27 28 29 30 31 31 32 33 33 34 34 34 35 35 35 34 32 31 31 31 31 31 31 32 32 32 32 32 31 30 30 31 32 34 34
19 21 23 24 26 27 28 29 30 31 32 32 33 33 34 34 34 35 35 35 36 37 37 36 35 34 32 32 32 32 32 32 32 32 32 32 32 32 31 31 33 33 34
23 25 27 29 30 31 32 33 34 35 35 35 35 35 35 35 35 36 36 37 37 38 38 39 38 37 36 34 34 34 34 33 33 34 34 33 33 33 32 31 31 33 34
27 29 31 33 34 35 35 36 36 36 35 35 35 35 35 35 36 37 38 38 39 39 39 40 40 40 39 38 37 36 37 36 36 36 36 36 35 35 34 33 31 32 34
30 32 34 35 36 36 37 37 37 36 36 36 35 35 35 36 37 38 39 39 39 40 40 40 41 41 41 40 40 39 39 39 39 39 39 39 39 38 37 36 35 34 35
31 34 35 35 36 36 36 37 37 37 36 36 36 36 37 38 39 39 40 40 40 40 40 40 40 40 41 41 41 41 41 41 41 42 42 42 43 42 41 39 38 37 35
31 33 34 35 35 35 36 36 36 36 37 37 37 38 39 40 40 41 41 41 40 40 39 39 39 40 41 42 43 43 44 44 44 44 45 45 46 46 45 44 42 41 39
31 33 33 34 34 34 35 36 36 37 38 38 39 40 41 41 42 41 41 41 40 39 39 39 39 40 41 42 43 45 45 46 46 47 47 48 49 48 49 49 48 46 44
31 32 33 33 34 34 35 36 37 38 39 40 40 41 42 43 42 42 41 40 39 38 38 39 39 40 41 42 43 44 46 47 47 48 49 50 51 51 52 53 53 51 49
32 33 33 34 34 35 36 37 38 39 41 41 42 43 43 43 43 42 41 40 38 38 38 39 39 40 41 42 43 44 46 47 48 49 50 52 53 54 55 56 57 56 54
33 34 34 35 36 36 37 39 40 41 42 43 44 44 44 44 44 42 41 39 38 39 39 40 40 40 40 41 42 43 44 45 46 48 50 52 53 55 57 59 60 60 59
34 35 36 37 37 38 39 40 42 43 44 45 46 46 46 45 44 43 41 39 39 39 39 39 39 39 39 40 40 41 42 42 44 46 48 50 52 54 57 60 62 63 63
35 37 37 38 39 39 41 42 43 45 46 47 47 48 47 46 45 43 41 40 39 40 39 39 38 38 38 39 40 40 40 41 42 44 45 47 49 52 55 59 63 65 66
36 37 38 39 40 41 42 43 44 46 47 47 48 48 48 46 44 43 41 40 40 40 39 39 38 37 38 39 38 38 38 38 39 41 42 44 47 49 52 56 60 65 67
37 38 39 39 41 42 43 44 45 46 47 48 48 48 48 46 44 43 41 41 41 40 39 38 38 37 37 36 35 34 34 35 36 36 38 41 43 46 50 53 57 61 66
37 38 39 41 42 43 44 45 46 47 47 48 48 48 48 47 45 43 41 41 40 39 39 38 37 36 34 34 32 31 30 30 30 30 31 34 37 41 46 49 53 57 62
38 39 40 42 43 44 45 45 46 47 47 47 48 48 48 47 45 43 41 41 40 39 38 36 34 33 33 31 28 26 25 24 23 23 23 25 29 34 40 45 49 53 58
39 40 42 43 44 45 45 46 46 46 47 47 47 47 48 47 45 43 41 40 39 38 36 34 33 32 31 28 25 22 20 18 16 15 15 18 22 27 34 39 43 48 52
41 42 43 44 45 45 45 45 46 46 47 47 46 47 47 46 44 42 41 39 38 37 34 33 31 30 28 25 21 18 17 14 11 9 9 13 17 23 29 34 39 43 46
43 43 43 44 45 46 46 46 46 46 46 46 46 46 46 45 44 42 40 38 37 36 33 31 30 28 26 23 19 16 13 10 7 4 4 8 13 20 26 31 36 40 42
44 45 45 46 46 46 46 46 46 46 46 45 45 45 45 44 43 41 39 37 36 35 32 30 28 26 23 21 17 14 10 7 4 2 3 6 11 16 21 26 31 37 40
Wind_Direction
286 288 289 290 292 292 292 291 291 291 291 291 291 291 291 291 291 291 289 288 287 286 284 283 281 279 276 275 275 274 274 275 273 270 265 258 254 252 247 242 237 234 230
289 291 293 294 293 293 293 292 292 292 292 293 293 292 292 291 290 289 289 288 286 284 283 281 280 278 276 274 273 273 272 272 272 268 265 258 252 250 247 243 238 235 232
303 305 304 302 300 299 298 298 297 296 296 296 296 295 294 293 292 291 290 289 287 285 284 282 279 277 274 272 271 270 268 268 267 265 261 258 251 250 248 244 240 235 230
322 319 317 314 312 310 307 305 303 302 301 300 299 298 297 297 296 296 295 294 292 290 289 286 282 278 275 272 269 267 265 265 264 261 258 256 253 251 246 242 239 234 230
337 330 326 322 320 316 313 310 308 307 305 304 303 302 301 300 299 298 297 296 295 294 292 290 286 281 276 272 269 266 264 262 261 258 256 253 251 250 246 242 240 234 231
345 339 334 329 326 322 319 316 314 312 309 307 306 305 305 304 303 302 300 299 297 295 293 291 287 282 277 273 269 265 262 260 258 256 253 252 250 248 244 241 239 235 232
347 342 338 334 330 327 325 322 320 318 315 312 310 308 307 306 305 303 301 299 297 295 293 291 288 284 278 272 268 265 261 259 257 255 253 250 248 247 245 243 240 236 233
346 342 339 336 333 330 327 325 323 320 316 313 311 310 308 307 305 304 302 300 297 295 292 290 287 284 280 274 269 265 262 258 256 255 253 250 246 244 242 240 238 233 230
344 342 339 337 334 331 328 325 322 320 318 316 313 312 310 309 307 305 302 299 297 294 291 288 285 282 279 276 271 267 264 260 257 254 253 250 246 242 240 237 235 232 227
344 341 338 335 332 330 327 325 324 323 321 319 318 315 314 312 310 307 304 300 297 293 290 287 284 281 278 275 272 269 265 263 259 255 253 250 247 243 240 238 235 230 227
341 338 335 332 331 329 329 329 328 327 326 324 322 320 318 315 312 309 306 302 298 294 291 288 285 282 279 276 272 270 267 264 261 257 254 250 247 244 242 240 238 233 228
337 335 333 332 331 331 331 331 331 330 329 328 326 324 322 319 316 312 309 305 301 297 294 290 287 283 280 277 274 272 269 265 262 258 254 251 247 243 241 239 238 236 231
335 334 333 332 332 332 332 332 332 332 331 330 328 327 325 322 319 315 311 307 304 300 296 293 289 286 282 279 276 274 271 267 263 259 255 251 247 243 240 238 236 235 232
334 333 333 334 334 334 334 334 334 334 333 332 331 329 327 324 321 317 313 310 306 303 299 296 292 289 285 282 279 276 272 269 265 260 256 251 246 243 239 236 235 233 231
333 333 334 334 335 335 336 336 336 336 335 334 332 331 329 326 322 319 316 312 309 305 302 299 295 292 289 286 282 279 274 270 266 262 257 252 247 242 238 235 233 231 230
332 333 334 335 336 336 337 337 337 337 336 335 334 333 331 328 324 321 318 314 311 309 306 303 299 296 293 290 287 283 278 273 268 264 259 253 248 243 238 234 232 229 227
330 333 335 335 336 336 335 335 336 336 336 335 334 334 332 330 326 323 320 317 314 312 310 307 304 300 296 293 289 286 281 276 270 266 261 255 249 243 238 233 230 227 225
330 332 333 333 334 334 334 334 334 334 335 334 334 334 333 331 328 325 322 319 317 316 314 311 307 303 299 295 293 288 283 277 272 267 262 256 249 243 237 232 228 225 224
328 330 330 331 332 332 332 333 333 334 334 334 334 334 334 332 329 327 324 322 320 319 317 314 310 306 303 299 296 291 285 280 275 269 263 256 249 242 236 230 227 224 222
326 328 328 329 330 331 331 332 332 333 333 334 334 334 334 333 331 328 326 325 323 321 319 316 312 309 307 304 300 294 289 284 279 271 263 255 247 240 234 228 224 221 219
324 326 327 327 328 329 330 330 331 332 333 334 335 335 335 334 333 330 328 327 326 324 322 319 316 314 312 309 305 299 294 289 282 275 265 254 243 235 230 225 220 217 217
323 325 326 326 327 328 328 329 330 332 333 334 335 335 335 335 334 332 330 329 329 327 325 323 321 319 318 315 310 305 302 295 286 277 264 250 236 228 223 218 215 214 214
322 324 325 326 326 327 327 328 329 331 333 334 335 336 336 336 335 333 332 331 331 331 329 327 326 324 323 321 317 314 309 305 295 281 260 239 227 218 212 209 210 210 210
321 323 324 325 326 326 326 327 329 331 333 334 335 336 337 336 335 334 334 334 334 334 332 331 330 329 328 327 323 322 320 316 309 289 253 229 216 208 204 204 203 203 205
320 321 323 324 325 326 326 327 328 330 332 333 335 336 337 337 336 335 334 335 336 336 335 334 334 333 332 332 329 326 328 324 318 299 242 211 204 199 199 199 199 200 201
319 320 322 323 324 325 326 326 327 328 331 333 334 335 336 337 337 335 335 336 337 338 338 336 336 336 336 336 335 332 331 328 319 294 221 196 193 192 192 194 196 198 199
Height
5865 5863 5861 5859 5857 5854 5851 5849 5846 5842 5839 5836 5833 5830 5827 5824 5821 5818 5816 5814 5812 5809 5807 5805 5804 5802 5801 5800 5799 5799 5798 5798 5797 5796 5796 5797 5800 5802 5805 5808 5811 5815 5819
5861 5860 5858 5856 5852 5849 5846 5843 5840 5836 5832 5829 5825 5822 5819 5816 5813 5810 5807 5804 5802 5800 5798 5796 5794 5793 5792 5791 5790 5789 5789 5789 5788 5788 5789 5790 5793 5794 5797 5800 5803 5807 5811
5858 5856 5854 5851 5848 5845 5841 5838 5834 5830 5826 5822 5818 5814 5811 5807 5804 5801 5798 5795 5792 5789 5787 5786 5784 5783 5781 5781 5780 5780 5780 5780 5780 5780 5781 5782 5785 5786 5789 5791 5795 5798 5802
5854 5852 5849 5846 5843 5839 5836 5832 5828 5823 5819 5815 5811 5807 5803 5799 5795 5792 5788 5785 5782 5779 5777 5775 5774 5772 5771 5770 5770 5770 5770 5770 5771 5771 5772 5774 5776 5779 5780 5784 5787 5790 5794
5850 5848 5845 5841 5838 5834 5830 5826 5822 5817 5813 5808 5804 5799 5795 5791 5787 5783 5780 5776 5772 5769 5767 5765 5764 5762 5761 5760 5760 5760 5760 5761 5761 5763 5764 5766 5768 5770 5773 5776 5778 5782 5785
5846 5843 5840 5836 5832 5829 5824 5820 5816 5811 5806 5801 5796 5792 5787 5783 5779 5775 5771 5767 5763 5760 5757 5756 5754 5752 5751 5750 5750 5750 5751 5751 5752 5753 5755 5757 5759 5761 5764 5767 5770 5773 5777
5842 5839 5835 5831 5827 5823 5818 5813 5808 5803 5798 5793 5788 5784 5779 5775 5770 5766 5762 5758 5754 5750 5747 5745 5743 5742 5741 5741 5740 5740 5741 5742 5743 5744 5746 5748 5750 5752 5755 5758 5761 5765 5769
5838 5834 5830 5826 5821 5816 5811 5806 5801 5796 5791 5785 5780 5776 5771 5766 5762 5757 5753 5749 5745 5741 5738 5735 5733 5731 5730 5730 5730 5730 5730 5731 5733 5734 5736 5738 5741 5743 5746 5749 5752 5756 5760
5833 5829 5824 5820 5815 5810 5805 5799 5794 5789 5783 5778 5773 5768 5763 5758 5753 5748 5744 5739 5735 5731 5727 5724 5721 5719 5718 5718 5718 5718 5719 5720 5722 5724 5725 5728 5731 5734 5737 5740 5744 5748 5751
5828 5823 5819 5814 5810 5804 5799 5793 5788 5782 5776 5770 5765 5760 5754 5749 5744 5739 5734 5729 5724 5720 5716 5712 5709 5707 5705 5705 5705 5705 5706 5707 5709 5711 5714 5716 5720 5723 5727 5730 5734 5738 5742
5824 5820 5816 5811 5806 5800 5794 5788 5781 5775 5769 5763 5757 5752 5746 5740 5734 5728 5723 5717 5712 5708 5704 5700 5697 5694 5692 5691 5691 5691 5692 5693 5695 5697 5700 5703 5707 5711 5715 5719 5724 5728 5732
5822 5818 5813 5808 5802 5795 5789 5783 5776 5769 5763 5757 5750 5744 5737 5731 5724 5718 5711 5706 5700 5696 5691 5688 5685 5682 5679 5678 5677 5676 5677 5678 5680 5682 5685 5689 5692 5697 5702 5707 5712 5717 5722
5820 5815 5810 5804 5798 5791 5785 5778 5771 5764 5757 5750 5743 5736 5729 5722 5714 5707 5701 5694 5689 5684 5679 5675 5672 5669 5666 5664 5662 5661 5661 5662 5663 5665 5668 5672 5676 5682 5687 5693 5699 5705 5711
5816 5811 5805 5799 5793 5786 5779 5772 5766 5759 5751 5744 5736 5729 5721 5713 5705 5698 5690 5684 5678 5673 5668 5663 5659 5655 5652 5649 5647 5645 5644 5644 5645 5647 5650 5654 5658 5664 5670 5677 5684 5691 5698
5812 5806 5801 5794 5788 5781 5774 5767 5760 5753 5745 5737 5730 5722 5713 5705 5696 5688 5681 5674 5667 5662 5656 5651 5646 5642 5638 5634 5631 5629 5627 5627 5627 5628 5631 5634 5639 5645 5652 5660 5668 5675 5683
5808 5802 5795 5789 5782 5776 5769 5761 5754 5746 5738 5730 5722 5714 5705 5696 5687 5679 5671 5664 5657 5651 5645 5639 5634 5628 5624 5619 5615 5612 5610 5609 5609 5609 5611 5614 5619 5626 5633 5641 5649 5659 5668
5803 5797 5790 5784 5777 5770 5763 5756 5748 5740 5732 5723 5715 5706 5697 5688 5679 5670 5662 5654 5647 5640 5633 5627 5621 5615 5610 5605 5600 5596 5594 5592 5591 5590 5591 5594 5599 5605 5612 5621 5630 5640 5650
5797 5791 5785 5778 5771 5764 5757 5749 5741 5733 5725 5716 5707 5698 5689 5680 5670 5661 5653 5645 5637 5630 5623 5616 5609 5603 5597 5591 5586 5581 5578 5575 5574 5572 5573 5575 5578 5584 5591 5600 5610 5621 5633
5792 5786 5779 5772 5765 5758 5751 5743 5735 5726 5718 5709 5700 5690 5681 5672 5662 5653 5644 5636 5628 5620 5612 5605 5598 5591 5585 5578 5572 5567 5563 5559 5557 5555 5554 5556 5559 5564 5571 5580 5591 5603 5614
5786 5780 5773 5766 5759 5752 5744 5736 5728 5720 5711 5702 5692 5683 5673 5663 5654 5644 5635 5627 5619 5610 5602 5594 5586 5580 5573 5566 5559 5553 5549 5545 5541 5538 5537 5538 5542 5546 5552 5562 5573 5585 5598
5780 5773 5767 5760 5753 5745 5737 5729 5721 5712 5703 5694 5684 5675 5665 5655 5646 5636 5627 5618 5610 5601 5593 5585 5577 5569 5562 5555 5548 5542 5537 5532 5528 5525 5523 5523 5526 5530 5537 5547 5558 5570 5581
5773 5767 5760 5753 5746 5738 5731 5722 5714 5705 5696 5686 5677 5667 5657 5648 5638 5628 5619 5610 5601 5593 5584 5576 5568 5560 5553 5546 5539 5533 5527 5522 5518 5515 5513 5512 5514 5519 5526 5535 5545 5555 5566
5766 5760 5753 5746 5739 5731 5723 5715 5706 5698 5688 5679 5669 5660 5650 5640 5630 5621 5612 5603 5594 5585 5577 5569 5561 5553 5546 5538 5532 5527 5521 5516 5512 5509 5507 5507 5509 5513 5519 5527 5536 5545 5556
5758 5752 5745 5738 5731 5723 5715 5707 5699 5690 5681 5672 5662 5653 5643 5633 5623 5614 5605 5597 5588 5579 5570 5563 5555 5547 5540 5533 5528 5523 5517 5513 5509 5506 5504 5504 5506 5510 5516 5522 5530 5540 5550
5750 5744 5738 5731 5724 5716 5708 5699 5691 5683 5674 5665 5655 5646 5637 5627 5618 5608 5600 5591 5582 5573 5565 5558 5550 5543 5536 5530 5524 5520 5515 5512 5509 5506 5505 5505 5507 5511 5515 5521 5528 5536 5545
5742 5736 5729 5723 5715 5708 5700 5692 5683 5675 5667 5658 5649 5640 5631 5622 5613 5603 5594 5585 5577 5569 5561 5553 5546 5540 5533 5527 5522 5518 5515 5512 5510 5508 5507 5507 5509 5512 5516 5521 5527 5534 5542